<?xml version='1.0' encoding='UTF-8'?>
<gpx xmlns="http://www.topografix.com/GPX/1/1" creator="www.balnam.be" version="1.1" xmlns:xsi="http://www.w3.org/2001/XMLSchema-instance" xsi:schemaLocation="http://www.topografix.com/GPX/1/1 http://www.topografix.com/GPX/1/1/gpx.xsd">
<trk>
<name>hfmnci1</name>
<cmt>v</cmt>
<desc>Noirchain Chemin n°i1 </desc>
<link href="https://chemins.be/noirchain/chemin/i1"/><trkseg>
<trkpt lat="50.403000" lon="3.933411"><time>2026-05-02T20:42:16Z</time></trkpt>
<trkpt lat="50.404038" lon="3.934031"><time>2026-05-02T20:52:16Z</time></trkpt>
<trkpt lat="50.408749" lon="3.936791"><time>2026-05-02T21:02:16Z</time></trkpt>
</trkseg>
</trk>
<trk>
<name>hfmnci2</name>
<cmt>v</cmt>
<desc>Noirchain Chemin n°i2 </desc>
<link href="https://chemins.be/noirchain/chemin/i2"/><trkseg>
<trkpt lat="50.402928" lon="3.933355"><time>2026-05-02T20:42:16Z</time></trkpt>
<trkpt lat="50.404130" lon="3.930207"><time>2026-05-02T20:52:16Z</time></trkpt>
</trkseg>
</trk>
<trk>
<name>hfmnci3</name>
<cmt>v</cmt>
<desc>Noirchain Chemin n°i3 </desc>
<link href="https://chemins.be/noirchain/chemin/i3"/><trkseg>
<trkpt lat="50.402605" lon="3.939076"><time>2026-05-02T20:42:16Z</time></trkpt>
<trkpt lat="50.402890" lon="3.942560"><time>2026-05-02T20:52:16Z</time></trkpt>
<trkpt lat="50.403115" lon="3.944376"><time>2026-05-02T21:02:16Z</time></trkpt>
<trkpt lat="50.403065" lon="3.947211"><time>2026-05-02T21:12:16Z</time></trkpt>
</trkseg>
</trk>
<trk>
<name>hfmnci4</name>
<cmt>v</cmt>
<desc>Noirchain Chemin n°i4 </desc>
<link href="https://chemins.be/noirchain/chemin/i4"/><trkseg>
<trkpt lat="50.408264" lon="3.939913"><time>2026-05-02T20:42:16Z</time></trkpt>
<trkpt lat="50.403925" lon="3.938586"><time>2026-05-02T20:52:16Z</time></trkpt>
<trkpt lat="50.402665" lon="3.938976"><time>2026-05-02T21:02:16Z</time></trkpt>
<trkpt lat="50.402665" lon="3.938976"><time>2026-05-02T21:12:16Z</time></trkpt>
<trkpt lat="50.402655" lon="3.938966"><time>2026-05-02T21:22:16Z</time></trkpt>
<trkpt lat="50.398707" lon="3.938735"><time>2026-05-02T21:32:16Z</time></trkpt>
<trkpt lat="50.392994" lon="3.937486"><time>2026-05-02T21:42:16Z</time></trkpt>
</trkseg>
</trk>
<trk>
<name>hfmnci5</name>
<cmt>q</cmt>
<desc>Noirchain Chemin n°i5 </desc>
<link href="https://chemins.be/noirchain/chemin/i5"/><trkseg>
<trkpt lat="50.399122" lon="3.929492"><time>2026-05-02T20:42:16Z</time></trkpt>
<trkpt lat="50.397240" lon="3.926351"><time>2026-05-02T20:52:16Z</time></trkpt>
<trkpt lat="50.396485" lon="3.924840"><time>2026-05-02T21:02:16Z</time></trkpt>
</trkseg>
</trk>
<trk>
<name>hfmnci6</name>
<cmt>v</cmt>
<desc>Noirchain Chemin n°i6 </desc>
<link href="https://chemins.be/noirchain/chemin/i6"/><trkseg>
<trkpt lat="50.409010" lon="3.936421"><time>2026-05-02T20:42:16Z</time></trkpt>
<trkpt lat="50.406577" lon="3.932934"><time>2026-05-02T20:52:16Z</time></trkpt>
<trkpt lat="50.404143" lon="3.930359"><time>2026-05-02T21:02:16Z</time></trkpt>
</trkseg>
</trk>
<trk>
<name>hfmnci7</name>
<cmt>v</cmt>
<desc>Noirchain Chemin n°i7 </desc>
<link href="https://chemins.be/noirchain/chemin/i7"/><trkseg>
<trkpt lat="50.403280" lon="3.929157"><time>2026-05-02T20:42:16Z</time></trkpt>
<trkpt lat="50.404402" lon="3.928471"><time>2026-05-02T20:52:16Z</time></trkpt>
<trkpt lat="50.405783" lon="3.928213"><time>2026-05-02T21:02:16Z</time></trkpt>
<trkpt lat="50.408860" lon="3.926067"><time>2026-05-02T21:12:16Z</time></trkpt>
<trkpt lat="50.410692" lon="3.926132"><time>2026-05-02T21:22:16Z</time></trkpt>
<trkpt lat="50.410996" lon="3.925965"><time>2026-05-02T21:32:16Z</time></trkpt>
<trkpt lat="50.411390" lon="3.925145"><time>2026-05-02T21:42:16Z</time></trkpt>
</trkseg>
</trk>
<trk>
<name>hfmnci8</name>
<cmt>v</cmt>
<desc>Noirchain Chemin n°i8 </desc>
<link href="https://chemins.be/noirchain/chemin/i8"/><trkseg>
<trkpt lat="50.406743" lon="3.933067"><time>2026-05-02T20:42:16Z</time></trkpt>
<trkpt lat="50.407799" lon="3.933419"><time>2026-05-02T20:52:16Z</time></trkpt>
<trkpt lat="50.408966" lon="3.933385"><time>2026-05-02T21:02:16Z</time></trkpt>
<trkpt lat="50.409364" lon="3.933462"><time>2026-05-02T21:12:16Z</time></trkpt>
</trkseg>
</trk>
</gpx>